Location: downtown San Diego
(32.7310°N, 117.1990°W)
Time: 08:30:05
(UTC-08:00)

Meteor 1-29 - Pass Details

Date: 19 May 2017
Orbit: 445 x 466 km, 97.7° (Epoch: 23 November)

Event Time Altitude Azimuth Distance (km) Brightness Sun altitude
Rises 20:45:45 0° 15° (NNE) 2,455 6.9 -12.2°
Reaches altitude 10° 20:47:48 10° 18° (NNE) 1,576 5.9 -12.6°
Maximum altitude 20:51:09 66° 101° (E) 490 2.8 -13.1°
Drops below altitude 10° 20:54:28 10° 184° (S) 1,559 5.3 -13.7°
Enters shadow 20:54:55 - 185° (S) 1,749 5.6 -13.8°
